| time (UTC) | temp C | wind direction | speed KPH | gust KPH | rain 1hr cm | rain 24hr cm | rain mn cm | humidity % | barometer mb |
| 20260906022739 | 24 | 138 | 0.0 | 0.0 | 0.00 | 0.05 | 0.05 | 89 | 1011.9 |
| 20260906022735 | 24 | 138 | 0.0 | 0.0 | 0.00 | 0.05 | 0.05 | 89 | 1011.9 |
| 20260906021128 | 24 | 138 | 0.0 | 0.0 | 0.00 | 0.05 | 0.05 | 88 | 1011.5 |
| 20260906021124 | 24 | 138 | 0.0 | 0.0 | 0.00 | 0.05 | 0.05 | 88 | 1011.6 |
| 20260906020729 | 24 | 138 | 0.0 | 0.0 | 0.00 | 0.05 | 0.05 | 88 | 1011.3 |
| 20260906020231 | 24 | 144 | 0.0 | 0.0 | 0.00 | 0.05 | 0.05 | 88 | 1011.2 |
| 20260906015122 | 24 | 146 | 0.0 | 0.0 | 0.00 | 0.05 | 0.05 | 88 | 1011.1 |
| 20260906014621 | 24 | 146 | 0.0 | 0.0 | 0.00 | 0.05 | 0.05 | 87 | 1011.0 |
| 20260906014121 | 24 | 146 | 0.0 | 0.0 | 0.00 | 0.05 | 0.05 | 87 | 1011.0 |
| 20260906013622 | 24 | 146 | 0.0 | 0.0 | 0.00 | 0.05 | 0.05 | 87 | 1011.0 |
| 20260906013122 | 24 | 146 | 0.0 | 0.0 | 0.00 | 0.05 | 0.05 | 87 | 1011.1 |
| 20260906012621 | 24 | 146 | 0.0 | 0.0 | 0.00 | 0.05 | 0.05 | 87 | 1011.3 |
| 20260906012121 | 25 | 146 | 0.0 | 0.0 | 0.00 | 0.05 | 0.05 | 86 | 1011.3 |
| 20260906011621 | 25 | 146 | 0.0 | 0.0 | 0.00 | 0.05 | 0.05 | 85 | 1011.3 |
| 20260906011121 | 25 | 144 | 0.0 | 0.0 | 0.00 | 0.05 | 0.05 | 85 | 1011.2 |
| 20260906010623 | 25 | 144 | 0.0 | 0.0 | 0.00 | 0.05 | 0.05 | 85 | 1011.2 |
| 20260906010127 | 25 | 144 | 0.0 | 0.0 | 0.00 | 0.05 | 0.05 | 85 | 1011.1 |
| 20260906010122 | 25 | 144 | 0.0 | 0.0 | 0.00 | 0.05 | 0.05 | 85 | 1011.1 |
| 20260906005125 | 25 | 144 | 0.0 | 0.0 | 0.00 | 0.05 | 0.05 | 85 | 1011.0 |
| 20260906005121 | 25 | 144 | 0.0 | 0.0 | 0.00 | 0.05 | 0.05 | 85 | 1011.0 |
| 20260906004126 | 25 | 143 | 0.0 | 0.0 | 0.00 | 0.05 | 0.05 | 84 | 1011.0 |
| 20260906004122 | 25 | 144 | 0.0 | 0.0 | 0.00 | 0.05 | 0.05 | 85 | 1011.1 |
| 20260906003727 | 26 | 113 | 0.0 | 0.0 | 0.00 | 0.05 | 0.05 | 82 | 1011.1 |
| 20260906003122 | 25 | 121 | 0.0 | 0.0 | 0.00 | 0.05 | 0.05 | 83 | 1011.1 |
| 20260906002727 | 26 | 112 | 0.0 | 0.0 | 0.00 | 0.05 | 0.05 | 81 | 1011.2 |
| 20260906001621 | 26 | 101 | 0.0 | 0.0 | 0.00 | 0.05 | 0.05 | 80 | 1011.2 |
| 20260906001121 | 26 | 74 | 0.0 | 0.0 | 0.00 | 0.05 | 0.05 | 78 | 1011.4 |
| 20260906000621 | 26 | 74 | 0.0 | 0.0 | 0.00 | 0.05 | 0.05 | 78 | 1011.4 |
| 20260906000121 | 27 | 74 | 0.0 | 0.0 | 0.00 | 0.05 | 0.05 | 77 | 1011.4 |
| 20260905235619 | 27 | 128 | 0.0 | 0.0 | 0.00 | 0.05 | 0.05 | 75 | 1011.4 |
| 20260905235123 | 27 | 165 | 0.0 | 0.0 | 0.00 | 0.05 | 0.05 | 76 | 1011.4 |
| 20260905235119 | 27 | 182 | 0.0 | 0.0 | 0.00 | 0.05 | 0.05 | 76 | 1011.4 |
| 20260905234115 | 27 | 182 | 0.0 | 0.0 | 0.00 | 0.05 | 0.05 | 75 | 1011.5 |
| 20260905233616 | 27 | 182 | 0.0 | 0.0 | 0.00 | 0.05 | 0.05 | 74 | 1011.5 |
| 20260905233116 | 27 | 182 | 0.0 | 0.0 | 0.00 | 0.05 | 0.05 | 74 | 1011.4 |
| 20260905232614 | 27 | 182 | 0.0 | 0.0 | 0.00 | 0.05 | 0.05 | 74 | 1011.5 |
| 20260905232113 | 27 | 182 | 0.0 | 0.0 | 0.00 | 0.05 | 0.05 | 73 | 1011.5 |
| 20260905231614 | 27 | 190 | 0.0 | 0.0 | 0.00 | 0.05 | 0.05 | 73 | 1011.6 |
| 20260905231113 | 27 | 142 | 0.0 | 0.0 | 0.00 | 0.05 | 0.05 | 74 | 1011.6 |
| 20260905230610 | 27 | 142 | 0.0 | 0.0 | 0.00 | 0.05 | 0.05 | 74 | 1011.6 |
| 20260905230109 | 27 | 89 | 0.0 | 0.0 | 0.00 | 0.05 | 0.05 | 74 | 1011.6 |
| 20260905225609 | 28 | 152 | 0.0 | 0.0 | 0.00 | 0.05 | 0.05 | 74 | 1011.7 |
| 20260905225108 | 28 | 143 | 0.0 | 0.0 | 0.00 | 0.05 | 0.05 | 74 | 1011.9 |
| 20260905224607 | 28 | 228 | 0.0 | 0.0 | 0.00 | 0.05 | 0.05 | 73 | 1011.7 |
| 20260905224107 | 28 | 180 | 0.0 | 0.0 | 0.00 | 0.05 | 0.05 | 72 | 1011.6 |
| 20260905223611 | 28 | 178 | 0.0 | 0.0 | 0.00 | 0.05 | 0.05 | 72 | 1011.4 |
| 20260905223605 | 28 | 184 | 0.0 | 0.0 | 0.00 | 0.05 | 0.05 | 70 | 1011.5 |
| 20260905223105 | 28 | 135 | 0.0 | 0.0 | 0.00 | 0.05 | 0.05 | 71 | 1011.4 |
| 20260905222103 | 28 | 178 | 0.0 | 0.0 | 0.00 | 0.05 | 0.05 | 71 | 1011.4 |
| 20260905221605 | 28 | 178 | 0.0 | 0.0 | 0.05 | 0.05 | 0.05 | 74 | 1011.4 |
| 20260905221103 | 28 | 193 | 0.0 | 1.6 | 0.05 | 0.05 | 0.05 | 75 | 1011.4 |
| 20260905220604 | 28 | 193 | 0.0 | 1.6 | 0.05 | 0.05 | 0.05 | 75 | 1011.3 |
| 20260905220103 | 28 | 209 | 0.0 | 0.0 | 0.05 | 0.05 | 0.05 | 74 | 1011.3 |
| 20260905215601 | 28 | 207 | 0.0 | 0.0 | 0.05 | 0.05 | 0.05 | 74 | 1011.4 |
| 20260905215102 | 28 | 60 | 0.0 | 0.0 | 0.05 | 0.05 | 0.05 | 71 | 1011.2 |
| 20260905214601 | 29 | 59 | 0.0 | 0.0 | 0.05 | 0.05 | 0.05 | 70 | 1011.1 |
| 20260905214103 | 30 | 107 | 0.0 | 0.0 | 0.05 | 0.05 | 0.05 | 68 | 1011.0 |
| 20260905213601 | 31 | 120 | 0.0 | 0.0 | 0.05 | 0.05 | 0.05 | 67 | 1011.0 |
| 20260905213102 | 32 | 93 | 0.0 | 0.0 | 0.05 | 0.05 | 0.05 | 66 | 1010.9 |
| 20260905212601 | 33 | 58 | 0.0 | 0.0 | 0.05 | 0.05 | 0.05 | 61 | 1010.9 |
| 20260905212101 | 34 | 53 | 0.0 | 0.0 | 0.05 | 0.05 | 0.05 | 58 | 1011.0 |
| 20260905211600 | 34 | 339 | 0.0 | 0.0 | 0.00 | 0.00 | 0.00 | 52 | 1010.8 |
| 20260905211100 | 34 | 24 | 0.0 | 0.0 | 0.00 | 0.00 | 0.00 | 51 | 1010.8 |
| 20260905210559 | 34 | 251 | 0.0 | 0.0 | 0.00 | 0.00 | 0.00 | 52 | 1010.9 |
| 20260905210059 | 34 | 255 | 0.0 | 0.0 | 0.00 | 0.00 | 0.00 | 51 | 1011.0 |
| 20260905205559 | 34 | 276 | 0.0 | 0.0 | 0.00 | 0.00 | 0.00 | 51 | 1011.0 |
| 20260905204603 | 34 | 271 | 0.0 | 0.0 | 0.00 | 0.00 | 0.00 | 51 | 1011.0 |
| 20260905204559 | 34 | 253 | 0.0 | 0.0 | 0.00 | 0.00 | 0.00 | 51 | 1010.9 |
| 20260905203559 | 34 | 297 | 0.0 | 0.0 | 0.00 | 0.00 | 0.00 | 50 | 1011.1 |
| 20260905203058 | 34 | 294 | 0.0 | 0.0 | 0.00 | 0.00 | 0.00 | 51 | 1011.1 |
| 20260905202558 | 34 | 35 | 0.0 | 0.0 | 0.00 | 0.00 | 0.00 | 52 | 1011.2 |
| 20260905202058 | 33 | 322 | 0.0 | 0.0 | 0.00 | 0.00 | 0.00 | 52 | 1011.4 |
| 20260905201557 | 33 | 265 | 0.0 | 0.0 | 0.00 | 0.00 | 0.00 | 52 | 1011.5 |
| 20260905201057 | 34 | 286 | 0.0 | 0.0 | 0.00 | 0.00 | 0.00 | 51 | 1011.7 |
| 20260905200557 | 34 | 263 | 0.0 | 0.0 | 0.00 | 0.00 | 0.00 | 52 | 1011.6 |
| 20260905195604 | 34 | 347 | 0.0 | 0.0 | 0.00 | 0.00 | 0.00 | 51 | 1011.8 |
| 20260905195600 | 34 | 344 | 0.0 | 0.0 | 0.00 | 0.00 | 0.00 | 51 | 1011.8 |
| 20260905194555 | 34 | 48 | 0.0 | 0.0 | 0.00 | 0.00 | 0.00 | 51 | 1011.9 |
| 20260905194056 | 33 | 292 | 0.0 | 0.0 | 0.00 | 0.00 | 0.00 | 52 | 1012.0 |
| 20260905193555 | 33 | 240 | 0.0 | 0.0 | 0.00 | 0.00 | 0.00 | 52 | 1012.1 |
| 20260905193054 | 33 | 256 | 0.0 | 0.0 | 0.00 | 0.00 | 0.00 | 53 | 1012.1 |
| 20260905192555 | 33 | 302 | 0.0 | 0.0 | 0.00 | 0.00 | 0.00 | 53 | 1012.1 |
| 20260905192055 | 33 | 331 | 0.0 | 0.0 | 0.00 | 0.00 | 0.00 | 52 | 1012.2 |
| 20260905191701 | 33 | 272 | 0.0 | 0.0 | 0.00 | 0.00 | 0.00 | 53 | 1012.6 |
| 20260905191559 | 33 | 186 | 0.0 | 0.0 | 0.00 | 0.00 | 0.00 | 53 | 1012.5 |
| 20260905191554 | 33 | 183 | 0.0 | 0.0 | 0.00 | 0.00 | 0.00 | 52 | 1012.4 |
| 20260905190054 | 33 | 272 | 0.0 | 0.0 | 0.00 | 0.00 | 0.00 | 53 | 1012.7 |
| 20260905185555 | 33 | 165 | 0.0 | 0.0 | 0.00 | 0.00 | 0.00 | 54 | 1012.7 |
| 20260905185055 | 33 | 151 | 0.0 | 0.0 | 0.00 | 0.00 | 0.00 | 54 | 1012.8 |
| 20260905184554 | 33 | 238 | 0.0 | 0.0 | 0.00 | 0.00 | 0.00 | 55 | 1012.9 |
| 20260905184052 | 32 | 240 | 0.0 | 0.0 | 0.00 | 0.00 | 0.00 | 54 | 1013.0 |
| 20260905183556 | 32 | 49 | 0.0 | 0.0 | 0.00 | 0.00 | 0.00 | 55 | 1013.0 |
| 20260905183055 | 32 | 257 | 0.0 | 0.0 | 0.00 | 0.00 | 0.00 | 56 | 1013.0 |
| 20260905183050 | 32 | 49 | 0.0 | 0.0 | 0.00 | 0.00 | 0.00 | 55 | 1013.0 |
| 20260905182051 | 32 | 279 | 0.0 | 0.0 | 0.00 | 0.00 | 0.00 | 56 | 1013.1 |
| 20260905181551 | 32 | 237 | 0.0 | 0.0 | 0.00 | 0.00 | 0.00 | 56 | 1013.2 |
| 20260905181052 | 32 | 194 | 0.0 | 0.0 | 0.00 | 0.00 | 0.00 | 56 | 1013.3 |
| 20260905180550 | 32 | 194 | 0.0 | 0.0 | 0.00 | 0.00 | 0.00 | 57 | 1013.4 |
| 20260905180051 | 32 | 195 | 0.0 | 0.0 | 0.00 | 0.00 | 0.00 | 58 | 1013.4 |
| 20260905175551 | 31 | 134 | 0.0 | 0.0 | 0.00 | 0.00 | 0.00 | 58 | 1013.5 |
| 20260905175056 | 31 | 289 | 0.0 | 0.0 | 0.00 | 0.00 | 0.00 | 58 | 1013.6 |
| 20260905175051 | 31 | 289 | 0.0 | 0.0 | 0.00 | 0.00 | 0.00 | 59 | 1013.5 |
| 20260905174056 | 31 | 173 | 0.0 | 0.0 | 0.00 | 0.00 | 0.00 | 59 | 1013.7 |
| 20260905174051 | 31 | 239 | 0.0 | 0.0 | 0.00 | 0.00 | 0.00 | 59 | 1013.6 |
| 20260905173050 | 31 | 80 | 0.0 | 0.0 | 0.00 | 0.00 | 0.00 | 58 | 1013.8 |
| 20260905172555 | 31 | 287 | 0.0 | 0.0 | 0.00 | 0.00 | 0.00 | 58 | 1014.0 |
| 20260905172550 | 31 | 94 | 0.0 | 0.0 | 0.00 | 0.00 | 0.00 | 60 | 1014.0 |
| 20260905172157 | 31 | 186 | 0.0 | 0.0 | 0.00 | 0.00 | 0.00 | 59 | 1014.1 |
| 20260905171056 | 31 | 181 | 0.0 | 0.0 | 0.00 | 0.00 | 0.00 | 61 | 1013.9 |
| 20260905171051 | 31 | 161 | 0.0 | 0.0 | 0.00 | 0.00 | 0.00 | 60 | 1013.9 |
| 20260905170055 | 30 | 338 | 0.0 | 0.0 | 0.00 | 0.00 | 0.00 | 62 | 1014.2 |
| 20260905170050 | 30 | 137 | 0.0 | 0.0 | 0.00 | 0.00 | 0.00 | 62 | 1014.1 |
| 20260905165657 | 30 | 60 | 0.0 | 0.0 | 0.00 | 0.00 | 0.00 | 61 | 1014.2 |
| 20260905164550 | 30 | 80 | 0.0 | 0.0 | 0.00 | 0.00 | 0.00 | 62 | 1014.2 |
| 20260905164051 | 30 | 114 | 0.0 | 0.0 | 0.00 | 0.00 | 0.00 | 63 | 1014.2 |
| 20260905163551 | 30 | 60 | 0.0 | 0.0 | 0.00 | 0.00 | 0.00 | 62 | 1014.3 |
| 20260905163056 | 30 | 108 | 0.0 | 0.0 | 0.00 | 0.00 | 0.00 | 63 | 1014.3 |
| 20260905163051 | 30 | 153 | 0.0 | 0.0 | 0.00 | 0.00 | 0.00 | 63 | 1014.3 |
| 20260905162657 | 29 | 132 | 0.0 | 0.0 | 0.00 | 0.00 | 0.00 | 66 | 1014.5 |
| 20260905162051 | 30 | 107 | 0.0 | 0.0 | 0.00 | 0.00 | 0.00 | 65 | 1014.4 |
| 20260905161051 | 29 | 126 | 0.0 | 0.0 | 0.00 | 0.00 | 0.00 | 66 | 1014.6 |
| 20260905160548 | 29 | 343 | 0.0 | 0.0 | 0.00 | 0.00 | 0.00 | 66 | 1014.4 |
| 20260905160048 | 28 | 32 | 0.0 | 0.0 | 0.00 | 0.00 | 0.00 | 65 | 1014.4 |
| 20260905155546 | 28 | 76 | 0.0 | 0.0 | 0.00 | 0.00 | 0.00 | 66 | 1014.4 |
| 20260905155046 | 28 | 113 | 0.0 | 0.0 | 0.00 | 0.00 | 0.00 | 67 | 1014.4 |
| 20260905154546 | 28 | 18 | 0.0 | 0.0 | 0.00 | 0.00 | 0.00 | 67 | 1014.6 |
| 20260905154046 | 28 | 87 | 0.0 | 0.0 | 0.00 | 0.00 | 0.00 | 67 | 1014.6 |
| 20260905153552 | 28 | 92 | 0.0 | 0.0 | 0.00 | 0.00 | 0.00 | 70 | 1014.8 |
| 20260905153548 | 28 | 113 | 0.0 | 0.0 | 0.00 | 0.00 | 0.00 | 69 | 1014.7 |
| 20260905152547 | 27 | 40 | 0.0 | 0.0 | 0.00 | 0.00 | 0.00 | 70 | 1015.0 |
| 20260905152046 | 27 | 84 | 0.0 | 0.0 | 0.00 | 0.00 | 0.00 | 70 | 1015.0 |
| 20260905151550 | 27 | 59 | 0.0 | 0.0 | 0.00 | 0.00 | 0.00 | 70 | 1015.1 |
| 20260905151546 | 27 | 123 | 0.0 | 0.0 | 0.00 | 0.00 | 0.00 | 71 | 1015.2 |
| 20260905150550 | 27 | 117 | 0.0 | 0.0 | 0.00 | 0.00 | 0.00 | 71 | 1015.1 |
| 20260905150546 | 27 | 39 | 0.0 | 0.0 | 0.00 | 0.00 | 0.00 | 70 | 1015.1 |
| 20260905145547 | 27 | 66 | 0.0 | 0.0 | 0.00 | 0.00 | 0.00 | 72 | 1015.1 |
| 20260905145046 | 27 | 40 | 0.0 | 0.0 | 0.00 | 0.00 | 0.00 | 72 | 1015.1 |
| 20260905144544 | 27 | 42 | 0.0 | 0.0 | 0.00 | 0.00 | 0.00 | 72 | 1015.2 |
| 20260905144044 | 27 | 103 | 0.0 | 0.0 | 0.00 | 0.00 | 0.00 | 72 | 1015.2 |
| 20260905143550 | 27 | 52 | 0.0 | 0.0 | 0.00 | 0.00 | 0.00 | 70 | 1015.2 |
| 20260905143546 | 27 | 34 | 0.0 | 0.0 | 0.00 | 0.00 | 0.00 | 71 | 1015.1 |
| 20260905143149 | 27 | 85 | 0.0 | 0.0 | 0.00 | 0.00 | 0.00 | 73 | 1015.1 |
| 20260905142047 | 27 | 67 | 0.0 | 0.0 | 0.00 | 0.00 | 0.00 | 77 | 1015.1 |
| 20260905142043 | 27 | 28 | 0.0 | 0.0 | 0.00 | 0.00 | 0.00 | 73 | 1015.1 |
| 20260905141042 | 27 | 78 | 0.0 | 0.0 | 0.00 | 0.00 | 0.00 | 78 | 1015.0 |
| 20260905140542 | 26 | 54 | 0.0 | 0.0 | 0.00 | 0.00 | 0.00 | 79 | 1015.0 |
| 20260905140042 | 26 | 46 | 0.0 | 0.0 | 0.00 | 0.00 | 0.00 | 82 | 1015.0 |
| 20260905135542 | 26 | 43 | 0.0 | 0.0 | 0.00 | 0.00 | 0.00 | 85 | 1014.9 |
| 20260905135043 | 26 | 88 | 0.0 | 0.0 | 0.00 | 0.00 | 0.00 | 87 | 1014.8 |
| 20260905134542 | 26 | 68 | 0.0 | 0.0 | 0.00 | 0.00 | 0.00 | 88 | 1015.1 |
| 20260905134042 | 25 | 71 | 0.0 | 0.0 | 0.00 | 0.00 | 0.00 | 89 | 1014.7 |
| 20260905133542 | 25 | 67 | 0.0 | 0.0 | 0.00 | 0.00 | 0.00 | 90 | 1014.6 |
| 20260905133040 | 25 | 84 | 0.0 | 0.0 | 0.00 | 0.00 | 0.00 | 91 | 1014.6 |
| 20260905132540 | 24 | 85 | 0.0 | 0.0 | 0.00 | 0.00 | 0.00 | 91 | 1014.6 |
| 20260905132039 | 24 | 63 | 0.0 | 0.0 | 0.00 | 0.00 | 0.00 | 92 | 1014.6 |
| 20260905131540 | 23 | 65 | 0.0 | 0.0 | 0.00 | 0.00 | 0.00 | 92 | 1014.6 |
| 20260905131039 | 23 | 84 | 0.0 | 0.0 | 0.00 | 0.00 | 0.00 | 92 | 1014.7 |
| 20260905130540 | 23 | 66 | 0.0 | 0.0 | 0.00 | 0.00 | 0.00 | 92 | 1014.7 |
| 20260905130040 | 23 | 66 | 0.0 | 0.0 | 0.00 | 0.00 | 0.00 | 92 | 1014.9 |
| 20260905125540 | 23 | 81 | 0.0 | 0.0 | 0.00 | 0.00 | 0.00 | 92 | 1014.8 |
| 20260905125040 | 23 | 71 | 0.0 | 0.0 | 0.00 | 0.00 | 0.00 | 92 | 1014.8 |
| 20260905124540 | 23 | 69 | 0.0 | 0.0 | 0.00 | 0.00 | 0.00 | 92 | 1014.9 |
| 20260905124038 | 23 | 69 | 0.0 | 0.0 | 0.00 | 0.00 | 0.00 | 92 | 1015.0 |
| 20260905123540 | 23 | 89 | 0.0 | 0.0 | 0.00 | 0.00 | 0.00 | 92 | 1014.6 |
| 20260905123038 | 23 | 88 | 0.0 | 0.0 | 0.00 | 0.00 | 0.00 | 92 | 1014.9 |
| 20260905122538 | 23 | 88 | 0.0 | 0.0 | 0.00 | 0.00 | 0.00 | 92 | 1014.6 |
| 20260905122035 | 23 | 88 | 0.0 | 0.0 | 0.00 | 0.00 | 0.00 | 92 | 1014.6 |
| 20260905121536 | 23 | 88 | 0.0 | 0.0 | 0.00 | 0.00 | 0.00 | 92 | 1014.5 |
| 20260905121035 | 23 | 88 | 0.0 | 0.0 | 0.00 | 0.00 | 0.00 | 92 | 1014.4 |
| 20260905120536 | 22 | 88 | 0.0 | 0.0 | 0.00 | 0.00 | 0.00 | 92 | 1014.3 |
| 20260905120034 | 22 | 88 | 0.0 | 0.0 | 0.00 | 0.00 | 0.00 | 92 | 1014.3 |
| 20260905115534 | 22 | 88 | 0.0 | 0.0 | 0.00 | 0.00 | 0.00 | 92 | 1014.2 |
| 20260905115032 | 22 | 88 | 0.0 | 0.0 | 0.00 | 0.00 | 0.00 | 92 | 1014.2 |
| 20260905114532 | 22 | 88 | 0.0 | 0.0 | 0.00 | 0.00 | 0.00 | 92 | 1014.1 |
| 20260905114032 | 22 | 80 | 0.0 | 0.0 | 0.00 | 0.00 | 0.00 | 92 | 1013.9 |
| 20260905113536 | 22 | 80 | 0.0 | 0.0 | 0.00 | 0.00 | 0.00 | 92 | 1013.9 |
| 20260905113532 | 22 | 80 | 0.0 | 0.0 | 0.00 | 0.00 | 0.00 | 92 | 1014.0 |
| 20260905112532 | 22 | 80 | 0.0 | 0.0 | 0.00 | 0.00 | 0.00 | 92 | 1013.9 |
| 20260905112032 | 22 | 80 | 0.0 | 0.0 | 0.00 | 0.00 | 0.00 | 92 | 1013.8 |
| 20260905111532 | 22 | 80 | 0.0 | 0.0 | 0.00 | 0.00 | 0.00 | 92 | 1013.8 |
| 20260905111035 | 22 | 80 | 0.0 | 0.0 | 0.00 | 0.00 | 0.00 | 92 | 1013.8 |
| 20260905111029 | 22 | 80 | 0.0 | 0.0 | 0.00 | 0.00 | 0.00 | 92 | 1013.9 |
| 20260905110029 | 22 | 80 | 0.0 | 0.0 | 0.00 | 0.00 | 0.00 | 92 | 1013.7 |
| 20260905105528 | 22 | 80 | 0.0 | 0.0 | 0.00 | 0.00 | 0.00 | 92 | 1013.6 |
| 20260905105029 | 22 | 80 | 0.0 | 0.0 | 0.00 | 0.00 | 0.00 | 92 | 1013.6 |
| 20260905104527 | 22 | 80 | 0.0 | 0.0 | 0.00 | 0.00 | 0.00 | 92 | 1013.7 |
| 20260905104024 | 22 | 80 | 0.0 | 0.0 | 0.00 | 0.00 | 0.00 | 92 | 1013.6 |
| 20260905103524 | 22 | 80 | 0.0 | 0.0 | 0.00 | 0.00 | 0.00 | 92 | 1013.6 |
| 20260905103027 | 23 | 80 | 0.0 | 0.0 | 0.00 | 0.00 | 0.00 | 92 | 1013.8 |
| 20260905103023 | 23 | 80 | 0.0 | 0.0 | 0.00 | 0.00 | 0.00 | 92 | 1013.7 |
| 20260905102027 | 23 | 80 | 0.0 | 0.0 | 0.00 | 0.00 | 0.00 | 92 | 1013.7 |
| 20260905102023 | 23 | 80 | 0.0 | 0.0 | 0.00 | 0.00 | 0.00 | 92 | 1013.7 |
| 20260905101027 | 23 | 80 | 0.0 | 0.0 | 0.00 | 0.00 | 0.00 | 92 | 1013.5 |
| 20260905101023 | 23 | 80 | 0.0 | 0.0 | 0.00 | 0.00 | 0.00 | 92 | 1013.6 |
| 20260905100023 | 23 | 80 | 0.0 | 0.0 | 0.00 | 0.00 | 0.00 | 92 | 1013.4 |
| 20260905095524 | 23 | 80 | 0.0 | 0.0 | 0.00 | 0.00 | 0.00 | 92 | 1013.5 |
| 20260905095028 | 23 | 80 | 0.0 | 0.0 | 0.00 | 0.00 | 0.00 | 92 | 1013.3 |
| 20260905095023 | 23 | 80 | 0.0 | 0.0 | 0.00 | 0.00 | 0.00 | 92 | 1013.4 |
| 20260905094523 | 23 | 80 | 0.0 | 0.0 | 0.00 | 0.00 | 0.00 | 92 | 1013.4 |
| 20260905093525 | 23 | 80 | 0.0 | 0.0 | 0.00 | 0.00 | 0.00 | 92 | 1013.3 |
| 20260905093023 | 23 | 80 | 0.0 | 0.0 | 0.00 | 0.00 | 0.00 | 92 | 1013.2 |
| 20260905092525 | 23 | 80 | 0.0 | 0.0 | 0.00 | 0.00 | 0.00 | 92 | 1013.2 |
| 20260905092023 | 23 | 80 | 0.0 | 0.0 | 0.00 | 0.00 | 0.00 | 92 | 1013.2 |
| 20260905091528 | 23 | 80 | 0.0 | 0.0 | 0.00 | 0.00 | 0.00 | 92 | 1013.1 |
| 20260905091523 | 23 | 80 | 0.0 | 0.0 | 0.00 | 0.00 | 0.00 | 92 | 1013.1 |
| 20260905091130 | 23 | 80 | 0.0 | 0.0 | 0.00 | 0.00 | 0.00 | 92 | 1013.1 |
| 20260905090024 | 23 | 80 | 0.0 | 0.0 | 0.00 | 0.00 | 0.00 | 92 | 1013.1 |
| 20260905085521 | 23 | 80 | 0.0 | 0.0 | 0.00 | 0.00 | 0.00 | 92 | 1013.1 |
| 20260905085022 | 23 | 80 | 0.0 | 0.0 | 0.00 | 0.00 | 0.00 | 92 | 1013.0 |
| 20260905084521 | 23 | 80 | 0.0 | 0.0 | 0.00 | 0.00 | 0.00 | 92 | 1013.0 |
| 20260905084025 | 23 | 80 | 0.0 | 0.0 | 0.00 | 0.00 | 0.00 | 92 | 1013.0 |
| 20260905084020 | 23 | 80 | 0.0 | 0.0 | 0.00 | 0.00 | 0.00 | 92 | 1013.1 |
| 20260905083019 | 23 | 80 | 0.0 | 0.0 | 0.00 | 0.00 | 0.00 | 92 | 1013.0 |
| 20260905082517 | 23 | 80 | 0.0 | 0.0 | 0.00 | 0.00 | 0.00 | 92 | 1013.0 |
| 20260905082021 | 23 | 80 | 0.0 | 0.0 | 0.00 | 0.00 | 0.00 | 92 | 1012.9 |
| 20260905082016 | 23 | 80 | 0.0 | 0.0 | 0.00 | 0.00 | 0.00 | 92 | 1013.0 |
| 20260905081015 | 23 | 80 | 0.0 | 0.0 | 0.00 | 0.00 | 0.00 | 92 | 1012.9 |
| 20260905080516 | 23 | 80 | 0.0 | 0.0 | 0.00 | 0.00 | 0.00 | 92 | 1012.9 |
| 20260905080015 | 23 | 80 | 0.0 | 0.0 | 0.00 | 0.00 | 0.00 | 92 | 1013.1 |
| 20260905075521 | 23 | 80 | 0.0 | 0.0 | 0.00 | 0.00 | 0.00 | 92 | 1013.1 |
| 20260905075517 | 23 | 80 | 0.0 | 0.0 | 0.00 | 0.00 | 0.00 | 92 | 1013.1 |
| 20260905074517 | 23 | 80 | 0.0 | 0.0 | 0.00 | 0.00 | 0.00 | 92 | 1013.3 |
| 20260905074513 | 23 | 80 | 0.0 | 0.0 | 0.00 | 0.00 | 0.00 | 92 | 1013.2 |
| 20260905073519 | 24 | 80 | 0.0 | 0.0 | 0.00 | 0.00 | 0.00 | 91 | 1013.6 |
| 20260905073512 | 23 | 80 | 0.0 | 0.0 | 0.00 | 0.00 | 0.00 | 92 | 1013.4 |
| 20260905073013 | 23 | 80 | 0.0 | 0.0 | 0.00 | 0.00 | 0.00 | 91 | 1013.4 |
| 20260905072013 | 24 | 80 | 0.0 | 0.0 | 0.00 | 0.00 | 0.00 | 92 | 1013.6 |
| 20260905071512 | 24 | 80 | 0.0 | 0.0 | 0.00 | 0.00 | 0.00 | 92 | 1013.6 |
| 20260905071013 | 24 | 80 | 0.0 | 0.0 | 0.00 | 0.00 | 0.00 | 92 | 1013.6 |
| 20260905070512 | 24 | 80 | 0.0 | 0.0 | 0.00 | 0.00 | 0.00 | 92 | 1013.7 |
| 20260905070013 | 24 | 80 | 0.0 | 0.0 | 0.00 | 0.00 | 0.00 | 92 | 1013.8 |
| 20260905070009 | 24 | 80 | 0.0 | 0.0 | 0.00 | 0.00 | 0.00 | 92 | 1013.7 |
| 20260905065006 | 24 | 80 | 0.0 | 0.0 | 0.00 | 0.00 | 0.00 | 92 | 1013.8 |
| 20260905064509 | 24 | 80 | 0.0 | 0.0 | 0.00 | 0.00 | 0.00 | 91 | 1013.9 |
| 20260905064008 | 24 | 80 | 0.0 | 0.0 | 0.00 | 0.00 | 0.00 | 92 | 1014.0 |
| 20260905063506 | 24 | 80 | 0.0 | 0.0 | 0.00 | 0.00 | 0.00 | 92 | 1014.1 |
| 20260905063006 | 24 | 80 | 0.0 | 0.0 | 0.00 | 0.00 | 0.00 | 92 | 1014.1 |
| 20260905062506 | 24 | 80 | 0.0 | 0.0 | 0.00 | 0.00 | 0.00 | 92 | 1014.2 |
| 20260905062007 | 24 | 80 | 0.0 | 0.0 | 0.00 | 0.00 | 0.00 | 91 | 1014.2 |
| 20260905061506 | 24 | 80 | 0.0 | 0.0 | 0.00 | 0.00 | 0.00 | 91 | 1014.2 |
| 20260905061006 | 24 | 80 | 0.0 | 0.0 | 0.00 | 0.00 | 0.00 | 91 | 1014.3 |
| 20260905060506 | 24 | 80 | 0.0 | 0.0 | 0.00 | 0.00 | 0.00 | 91 | 1014.3 |
| 20260905060006 | 24 | 80 | 0.0 | 0.0 | 0.00 | 0.00 | 0.00 | 92 | 1014.3 |
| 20260905055507 | 24 | 80 | 0.0 | 0.0 | 0.00 | 0.00 | 0.00 | 92 | 1014.4 |
| 20260905055005 | 24 | 80 | 0.0 | 0.0 | 0.00 | 0.00 | 0.00 | 92 | 1014.4 |
| 20260905054505 | 24 | 80 | 0.0 | 0.0 | 0.00 | 0.00 | 0.00 | 91 | 1014.4 |
| 20260905054005 | 24 | 80 | 0.0 | 0.0 | 0.00 | 0.00 | 0.00 | 91 | 1014.4 |
| 20260905053505 | 24 | 80 | 0.0 | 0.0 | 0.00 | 0.00 | 0.00 | 91 | 1014.4 |
| 20260905053004 | 25 | 80 | 0.0 | 0.0 | 0.00 | 0.00 | 0.00 | 91 | 1014.3 |
| 20260905052510 | 25 | 80 | 0.0 | 0.0 | 0.00 | 0.00 | 0.00 | 91 | 1014.5 |
| 20260905052504 | 25 | 80 | 0.0 | 0.0 | 0.00 | 0.00 | 0.00 | 91 | 1014.4 |
| 20260905052004 | 25 | 80 | 0.0 | 0.0 | 0.00 | 0.00 | 0.00 | 91 | 1014.4 |
| 20260905051504 | 25 | 80 | 0.0 | 0.0 | 0.00 | 0.00 | 0.00 | 91 | 1014.4 |
| 20260905050504 | 25 | 80 | 0.0 | 0.0 | 0.00 | 0.00 | 0.00 | 91 | 1014.4 |
| 20260905050004 | 25 | 80 | 0.0 | 0.0 | 0.00 | 0.00 | 0.00 | 91 | 1014.4 |
| 20260905045506 | 25 | 88 | 0.0 | 0.0 | 0.00 | 0.00 | 0.00 | 91 | 1014.4 |
| 20260905045502 | 25 | 82 | 0.0 | 0.0 | 0.00 | 0.00 | 0.00 | 91 | 1014.4 |
| 20260905044503 | 25 | 84 | 0.0 | 0.0 | 0.00 | 0.00 | 0.00 | 91 | 1014.4 |
| 20260905044003 | 25 | 88 | 0.0 | 0.0 | 0.00 | 0.00 | 0.00 | 91 | 1014.4 |
| 20260905043502 | 25 | 88 | 0.0 | 0.0 | 0.00 | 0.00 | 0.00 | 91 | 1014.4 |
| 20260905043003 | 25 | 84 | 0.0 | 0.0 | 0.00 | 0.00 | 0.00 | 91 | 1014.4 |
| 20260905042502 | 25 | 84 | 0.0 | 0.0 | 0.00 | 0.00 | 0.00 | 90 | 1014.4 |
| 20260905042003 | 25 | 84 | 0.0 | 0.0 | 0.00 | 0.00 | 0.00 | 90 | 1014.4 |
| 20260905041503 | 25 | 84 | 0.0 | 0.0 | 0.00 | 0.00 | 0.00 | 90 | 1014.4 |
| 20260905041002 | 25 | 84 | 0.0 | 0.0 | 0.00 | 0.00 | 0.00 | 90 | 1014.4 |
| 20260905040500 | 25 | 84 | 0.0 | 0.0 | 0.00 | 0.00 | 0.00 | 90 | 1014.5 |
| 20260905040000 | 25 | 84 | 0.0 | 0.0 | 0.00 | 0.00 | 0.00 | 90 | 1014.5 |
| 20260905035500 | 25 | 84 | 0.0 | 0.0 | 0.00 | 0.00 | 0.00 | 90 | 1014.5 |
| 20260905035000 | 26 | 84 | 0.0 | 0.0 | 0.00 | 0.00 | 0.00 | 90 | 1014.4 |
| 20260905034500 | 26 | 84 | 0.0 | 0.0 | 0.00 | 0.00 | 0.00 | 90 | 1014.4 |
| 20260905034005 | 26 | 84 | 0.0 | 0.0 | 0.00 | 0.00 | 0.00 | 90 | 1014.4 |
| 20260905034001 | 26 | 84 | 0.0 | 0.0 | 0.00 | 0.00 | 0.00 | 90 | 1014.4 |
| 20260905033607 | 26 | 84 | 0.0 | 0.0 | 0.00 | 0.00 | 0.00 | 89 | 1014.5 |
| 20260905033000 | 26 | 84 | 0.0 | 0.0 | 0.00 | 0.00 | 0.00 | 90 | 1014.4 |
| 20260905032500 | 26 | 84 | 0.0 | 0.0 | 0.00 | 0.00 | 0.00 | 89 | 1014.4 |
| 20260905032105 | 26 | 84 | 0.0 | 0.0 | 0.00 | 0.00 | 0.00 | 89 | 1014.4 |
| 20260905030959 | 26 | 84 | 0.0 | 0.0 | 0.00 | 0.00 | 0.00 | 89 | 1014.4 |
| 20260905030458 | 26 | 84 | 0.0 | 0.0 | 0.00 | 0.00 | 0.00 | 89 | 1014.5 |
| 20260905025957 | 26 | 84 | 0.0 | 0.0 | 0.00 | 0.00 | 0.00 | 88 | 1014.5 |
| 20260905025458 | 26 | 84 | 0.0 | 0.0 | 0.00 | 0.00 | 0.00 | 89 | 1014.6 |
| 20260905024958 | 26 | 84 | 0.0 | 0.0 | 0.00 | 0.00 | 0.00 | 89 | 1014.5 |
| 20260905024457 | 26 | 84 | 0.0 | 0.0 | 0.00 | 0.00 | 0.00 | 88 | 1014.4 |
| 20260905023958 | 26 | 84 | 0.0 | 0.0 | 0.00 | 0.00 | 0.00 | 88 | 1014.5 |
| 20260905023458 | 26 | 84 | 0.0 | 0.0 | 0.00 | 0.00 | 0.00 | 88 | 1014.5 |
| 20260905022955 | 26 | 84 | 0.0 | 0.0 | 0.00 | 0.00 | 0.00 | 88 | 1014.3 |